Location: Newark
(51.0089°N, 21.5817°E)
Time: 13:58:58
(UTC+00:00)

Envisat - Visible Passes

Search period start: 07 December 2019 00:00
Search period end: 17 December 2019 00:00
Orbit: 764 x 766 km, 98.1° (Epoch: 07 December)

Date Brightness Start Highest point End Pass type
(mag) Time Alt. Az. Time Alt. Az. Time Alt. Az.
07 Dec 4.7 04:51:20 10° NNE 04:56:03 37° E 05:00:44 10° SSE visible
07 Dec 2.9 16:10:43 10° SSE 16:15:48 79° ENE 16:20:55 10° NNW visible
07 Dec 5.7 17:52:08 10° SW 17:55:27 17° W 17:58:46 10° NW visible
08 Dec 5.8 04:15:18 10° NE 04:18:54 19° E 04:22:29 10° SE visible
08 Dec 3.4 15:34:25 10° SE 15:39:09 41° ENE 15:43:55 10° N visible
08 Dec 4.7 17:13:42 10° SSW 17:18:16 33° W 17:22:53 10° NNW visible
09 Dec 3.7 05:16:37 10° NNE 05:21:40 60° E 05:26:41 10° S visible
09 Dec 3.4 16:36:16 10° S 16:41:18 66° WSW 16:46:24 10° NNW visible
09 Dec 6.2 18:20:46 10° W 18:21:20 10° W 18:21:56 10° WNW visible
10 Dec 5.0 04:40:12 10° NNE 04:44:41 30° E 04:49:08 10° SSE visible
10 Dec 2.9 15:59:31 10° SSE 16:04:32 65° ENE 16:09:35 10° N visible
10 Dec 5.4 17:40:13 10° SW 17:44:01 21° W 17:47:51 10° NW visible
11 Dec 6.0 04:04:28 10° NE 04:07:29 16° E 04:10:29 10° ESE visible
11 Dec 3.0 05:42:05 10° NNE 05:47:12 86° WNW 05:52:18 10° SSW visible
11 Dec 3.6 15:23:24 10° SE 15:27:57 34° ENE 15:32:31 10° N visible
11 Dec 4.3 17:02:08 10° SSW 17:06:55 40° W 17:11:43 10° NNW visible
12 Dec 4.1 05:05:24 10° NNE 05:10:21 49° E 05:15:16 10° S visible
12 Dec 3.1 16:24:55 10° SSE 16:30:00 80° WSW 16:35:08 10° NNW visible
12 Dec 6.0 18:07:36 10° WSW 18:09:53 13° W 18:12:09 10° WNW visible
13 Dec 5.4 04:29:07 10° NE 04:33:18 25° E 04:37:27 10° SSE visible
13 Dec 3.1 15:48:22 10° SE 15:53:17 53° ENE 15:58:15 10° N visible
13 Dec 5.1 17:28:26 10° SSW 17:32:37 25° W 17:36:50 10° NW visible
14 Dec 6.1 03:53:51 10° ENE 03:56:02 13° E 03:58:12 10° ESE visible
14 Dec 3.2 05:30:48 10° NNE 05:35:55 79° ESE 05:41:00 10° S visible
14 Dec 3.8 15:12:27 10° ESE 15:16:46 29° ENE 15:21:05 10° N visible
14 Dec 3.9 16:50:39 10° S 16:55:34 50° W 17:00:32 10° NNW visible
15 Dec 4.5 04:54:13 10° NNE 04:59:00 40° E 05:03:46 10° SSE visible
15 Dec 2.9 16:13:38 10° SSE 16:18:43 84° ENE 16:23:50 10° NNW visible
15 Dec 5.8 17:55:22 10° SW 17:58:26 16° W 18:01:31 10° NW visible
16 Dec 5.7 04:18:06 10° NE 04:21:53 21° E 04:25:39 10° SE visible
16 Dec 3.3 15:37:16 10° SE 15:42:03 44° ENE 15:46:53 10° N visible
16 Dec 4.8 17:16:45 10° SSW 17:21:14 31° W 17:25:44 10° NNW visible
